Regional Weather Roundup
Issued by NWS Upton, NY

Current Version | Previous Version | Graphics & Text | Print | Product List | Glossary Off
Versions: 1 2 3 4 5 6 7 8 9 10 11 12 13 14 15 16 17 18 19 20 21 22 23 24 25 26 27 28 29 30 31 32 33 34 35 36 37 38 39 40 41 42 43 44 45 46 47 48 49 50

000
ASUS41 KOKX 221105
RWROKX

REGIONAL WEATHER ROUNDUP
NATIONAL WEATHER SERVICE NEW YORK NY
700 AM EDT TUE JUL 22 2014

NOTE: "FAIR" INDICATES FEW OR NO CLOUDS BELOW 12,000 FEET WITH NO
SIGNIFICANT WEATHER AND/OR OBSTRUCTIONS TO VISIBILITY.

NYZ071-072-176-178-NJZ106-104-221200-
NEW YORK CITY METRO AREA


CITY           SKY/WX    TMP DP  RH WIND       PRES   REMARKS
CENTRAL PARK   SUNNY     71  61  70 VRB3      30.20S
LAGUARDIA APRT MOSUNNY   73  61  65 SW3       30.17S
KENNEDY INTL   MOSUNNY   73  62  68 W6        30.18S
NEWARK/LIBERTY MOSUNNY   71  63  75 SW3       30.17F
BRNX BOT. GARD   N/A     72  61  68 SE3       30.17F
TETERBORO      SUNNY     71  62  73 SW3       30.17R
$$

NYZ177-179-078>081-221200-
LONG ISLAND NEW YORK

CITY           SKY/WX    TMP DP  RH WIND       PRES   REMARKS
FARMINGDALE    SUNNY     68  62  81 W5        30.18S
ISLIP          MOSUNNY   70  63  78 SW5       30.16S
SHIRLEY        SUNNY     68  64  87 W3        30.18S
WESTHAMPTON    SUNNY     64  61  90 CALM      30.19S
MONTAUK POINT    N/A     69  66  90 CALM      30.18S
$$

NYZ052-065-067-221200-
HUDSON VALLEY

CITY           SKY/WX    TMP DP  RH WIND       PRES   REMARKS
WHITE PLAINS   SUNNY     68  64  87 W3        30.18R
NEWBURGH       NOT AVBL
MONTGOMERY     SUNNY     66  64  93 CALM      30.17S
POUGHKEEPSIE   SUNNY     68  64  87 CALM      30.16R
ALBANY         MOSUNNY   70  64  81 S7        30.15S
$$

NJZ001-105-106-008-010-013-015-019>022-104-221200-
NEW JERSEY

CITY           SKY/WX    TMP DP  RH WIND       PRES   REMARKS
NEWARK/LIBERTY MOSUNNY   71  63  75 SW3       30.17F
TETERBORO      SUNNY     71  62  73 SW3       30.17R
CALDWELL       MOSUNNY   68  63  84 CALM      30.19R
MORRISTOWN     SUNNY     64  64 100 CALM      30.18S
SOMERVILLE     SUNNY     64  62  93 CALM      30.17R
LINDEN         FAIR      71  63  74 CALM      30.20S
SUSSEX         SUNNY     65  63  93 CALM      30.19R
ANDOVER          N/A     64  63  96 CALM      30.20R
TRENTON        SUNNY     67  62  84 CALM      30.18S
MILLVILLE      SUNNY     65  63  93 CALM      30.19S
ATLANTIC CITY  SUNNY     65  62  90 CALM      30.20R
WRIGHTSTOWN    SUNNY     65  63  92 CALM      30.17S
TOMS RIVER     SUNNY     61  57  88 CALM      30.20R
BELMAR         SUNNY     66  57  72 W5        30.19R
$$

PAZ047>061-062-071-221200-
EASTERN PENNSYLVANIA

CITY           SKY/WX    TMP DP  RH WIND       PRES   REMARKS
PHILADELPHIA   SUNNY     71  63  75 CALM      30.19S
ALLENTOWN      SUNNY     67  64  90 CALM      30.18S
SCRANTON       SUNNY     67  62  84 E3        30.19R
$$

CTZ002-004>006-009-010-012-RIZ004-006-007-MAZ004-011-015-221200-
SOUTHERN NEW ENGLAND
 IN CT

CITY           SKY/WX    TMP DP  RH WIND       PRES   REMARKS
BRADLEY INTL   MOSUNNY   68  63  84 S3        30.15S
HARTFORD       SUNNY     68  63  84 S5        30.15S
DANBURY        SUNNY     66  62  87 CALM      30.19S
WTRBRY/OXFORD  MOSUNNY   64  61  88 CALM      30.19S HAZE
BRIDGEPORT     SUNNY     70  66  87 W5        30.17R
MERIDEN        SUNNY     65  63  93 CALM      30.16S
NEW HAVEN      SUNNY     70  66  87 CALM      30.17R
CHESTER        FAIR      68  66  94 SW6       30.18S
GROTON         SUNNY     65  64  97 CALM      30.16S
WILLIMANTIC    CLOUDY    62  60  93 CALM      30.17S FOG

 IN RI

CITY           SKY/WX    TMP DP  RH WIND       PRES   REMARKS
PROVIDENCE     SUNNY     67  62  84 SW6       30.16S
BLOCK ISLAND   SUNNY     68  64  88 SW7       30.17S
WESTERLY       SUNNY     64  61  90 CALM      30.17S

 IN MA

CITY           SKY/WX    TMP DP  RH WIND       PRES   REMARKS
BOSTON         MOSUNNY   67  63  87 S3        30.14S
WORCESTER      SUNNY     65  61  87 W12       30.18R
WESTFIELD      SUNNY     64  61  90 CALM      30.16R
PROVINCETOWN   SUNNY     64  63  94 S6        30.16S
NANTUCKET      FOG       63  62  97 CALM      30.17S VSB 1/2
$$

ANZ330-335-338-340-345-350-353-355-221200-
COASTAL MARINE OBSERVATIONS


STATION/POSITION TIME  SKY/WX   TEMP    WIND        PRES    VSBY  WAVE
                                AIR SEA DIR/SP/G                  HT/PER
                 (UTC)          (F)     (DEG/KT/KT) (MB)    (MI)  (FT/S)
NY HARB ENTRANCE NOT AVBL
4S FIRE IS       NOT AVBL
23SW MTP         1100            70 70              1021.5          2/ 7
HUDSON CANYON    1100            71 72  350/  4/  6 1022.3          2/ 7
EXECUTION ROCKS  1100            71 70  190/  4/  6   N/A
WESTERN LI SOUND 1100            72     230/  6/  6   N/A           0
CENTRAL LI SOUND 1000            72 72  250/  8/ 10   N/A           0
EASTERN LI SOUND 1000            69 66   CALM  /  2   N/A
ROBBINS REEF     1100            71     240/  2/  3   N/A
$$


>>>>>>>>>>>>>>>>>>>>>>>>>>>> KEY <<<<<<<<<<<<<<<<<<<<<<<<<<<
>                                                          <
>     SKY/WX - SKY CONDITION/PRESENT WEATHER               <
>     TMP    - TEMPERATURE IN FAHRENHEIT                   <
>     DP     - DEWPOINT IN FAHRENHEIT                      <
>     RH     - RELATIVE HUMIDITY IN PERCENT                <
>     WIND   - DIRECTION AND SPEED IN MPH                  <
>     PRES   - MEAN SEA LEVEL PRESSURE IN INCHES OF HG     <
>     WCI    - WIND CHILL INDEX                            <
>     VSB    - VISIBILITY IN MILES                         <
>     HX     - HEAT INDEX                                  <
>     TC     - TEMPERATURE IN CELSIUS                      <
>     VRB    - VARIABLE WIND DIRECTION                     <
>                                                          <
>>>>>>>>>>>>>>>>>>>>>>>>>>>> KEY <<<<<<<<<<<<<<<<<<<<<<<<<<<





USA.gov is the U.S. government's official web portal to all federal, state and local government web resources and services.